Location: Eckley
(40.9930°N, 75.8630°W)
Time: 12:05:28
(UTC-04:00)

Daily predictions for brighter satellites

Satellite Brightness Start Highest point End
(mag) Time Altitude Azimuth Time Altitude Azimuth Time Altitude Azimuth
SL-16 R/B 2.8 21:04:45 10° NNW 21:10:18 58° WSW 21:15:50 10° S
Helios 1A 3.0 21:06:24 10° SSE 21:10:31 76° ENE 21:14:41 10° N
H-2A R/B 3.9 21:07:12 10° E 21:10:39 17° ENE 21:14:06 10° NNE
Okean 3 Rocket 3.6 21:07:49 10° S 21:12:18 88° E 21:16:47 10° N
RESURS DK-1 2.8 21:09:09 10° NNW 21:13:12 48° ENE 21:17:14 10° SE
Cosmos 1766 Rocket 4.0 21:10:19 10° SSE 21:14:24 43° E 21:18:32 10° NNE
Cosmos 1908 3.2 21:11:47 10° N 21:15:39 73° E 21:19:29 10° SSE
Cosmos 1340 Rocket 4.1 21:11:46 10° SSW 21:15:40 46° WNW 21:19:37 10° N
Cosmos 1818 4.4 21:10:43 10° NW 21:15:58 50° WSW 21:21:09 10° S
Cosmos 332 Rocket 4.4 21:12:04 10° N 21:16:44 42° ENE 21:21:24 10° SE
Cosmos 2016 Rocket 4.4 21:10:47 10° N 21:16:46 46° ENE 21:22:38 10° SSE
KORONAS-FOTON 3.9 21:17:35 10° S 21:21:17 54° E 21:25:00 10° NNE
Envisat 3.6 21:19:45 10° S 21:24:45 58° W 21:29:46 10° NNW
Cosmos 1939 Rocket 3.3 21:23:01 10° S 21:27:01 63° W 21:31:05 10° NNW
Spot 1 4.1 21:23:47 10° S 21:27:54 79° WSW 21:32:13 10° NNW
Cosmos 1814 Rocket 4.5 21:24:54 10° N 21:30:04 48° ENE 21:34:56 11° SE
Cosmos 1763 Rocket 4.2 21:27:55 10° N 21:32:42 39° ENE 21:37:00 12° SE
Meteor 1-29 3.0 21:29:29 10° N 21:32:56 83° WNW 21:36:24 10° SSW
YAOGAN 6 2.7 21:29:45 10° S 21:33:24 80° WSW 21:37:07 10° NNW
Cosmos 841 Rocket 4.5 21:29:03 10° N 21:33:45 32° ENE 21:37:59 12° ESE
Cosmos 220 Rocket 4.2 21:32:34 10° S 21:36:52 54° ESE 21:41:09 10° NNE
MetOp-B 4.4 21:32:20 10° SSE 21:37:31 53° ENE 21:42:43 10° N
NOAA 11 4.3 21:33:00 10° SSE 21:38:21 63° ENE 21:43:43 10° N
Cosmos 1486 Rocket 4.3 21:36:39 10° S 21:41:39 46° ESE 21:46:43 10° NNE
Cosmos 1626 4.0 21:42:47 13° ESE 21:44:11 16° E 21:46:27 10° NE
CZ-4B DEB 3.6 21:41:28 10° S 21:44:19 43° W 21:47:11 10° NNW
Cosmos 1726 2.1 21:43:23 10° N 21:47:03 68° E 21:50:10 14° SSE
Cosmos 2228 Rocket 3.5 21:44:23 10° N 21:48:50 49° E 21:52:22 15° SSE
Resurs 01 Rocket 4.3 21:47:19 10° SW 21:49:40 14° W 21:52:01 10° WNW
Cosmos 1459 Rocket 4.3 21:44:48 10° NNW 21:51:03 68° W 21:57:08 10° S
USA 234 3.8 21:45:13 10° ENE 21:51:03 34° SE 21:56:52 10° S
Cosmos 2263 Rocket 2.3 21:55:15 10° S 22:00:38 53° ESE 22:06:04 10° NNE
Cosmos 2151 3.6 21:59:38 18° SSE 22:02:25 39° E 22:06:27 10° NNE
Cosmos 371 Rocket 3.3 22:00:22 10° NNW 22:05:13 83° WSW 22:08:54 17° SSE
SPOT 1/Viking Rocket 3.9 22:02:02 18° SE 22:05:38 51° ENE 22:10:37 10° N
ERS-1 Rocket 3.3 22:01:53 10° S 22:06:51 64° WSW 22:11:52 10° NNW
Cosmos 1300 2.7 22:05:04 10° N 22:08:55 83° W 22:11:40 18° S
Cosmos 2123 Rocket 4.0 22:07:50 10° S 22:14:01 85° W 22:20:17 10° N
Meteor 1-27 4.3 22:14:20 10° N 22:20:07 65° ENE 22:23:47 23° SSE
SL-08 RB Rocket 3.7 22:19:42 21° SSE 22:22:43 89° WSW 22:27:23 10° NNW
Cosmos 540 Rocket 4.1 22:18:33 10° N 22:23:26 41° ENE 22:26:04 24° ESE
Cosmos 1503 Rocket 4.0 22:24:11 15° S 22:28:22 63° ESE 22:33:29 10° NNE
GPS 2-05 Rocket1 3.7 22:25:38 10° WSW 22:27:53 28° SSW 22:27:53 28° SSW
SL-14 R/B 4.4 22:27:53 10° SSW 22:31:40 43° WNW 22:35:26 10° N
ARGOS 3.5 22:27:52 17° S 22:32:01 63° WSW 22:37:24 10° NNW
Cosmos 1844 Rocket 4.0 22:32:40 20° ESE 22:33:11 20° E 22:37:10 10° NE
Cosmos 1500 Rocket 3.7 22:29:52 15° SSW 22:33:31 75° W 22:37:59 10° N
IGS 5A 4.2 22:33:38 29° ESE 22:35:04 39° ENE 22:38:57 10° N
Abrixas 3.9 22:33:13 10° W 22:35:46 35° NNW 22:38:19 10° NE
Tiangong 1 1.1 22:33:54 10° W 22:36:29 50° SW 22:36:29 50° SW
Cosmos 1725 Rocket 4.4 22:30:39 10° NNW 22:36:47 60° W 22:41:57 15° SSW
SPOT 5 3.3 22:33:35 20° S 22:36:58 60° W 22:42:04 10° NNW
ERBS 4.0 22:34:18 10° WNW 22:37:03 23° SW 22:37:55 21° SSW
Lacrosse 5 3.4 22:33:04 10° WNW 22:37:12 26° WSW 22:39:52 17° SSW
Cosmos 2285 Rocket 4.1 22:31:03 10° NNW 22:37:22 65° ENE 22:40:56 27° SE
Abrixas rocket 3.3 22:36:13 10° W 22:39:04 29° SW 22:39:18 28° SSW
Cosmos 1455 2.6 22:37:38 10° N 22:41:23 48° E 22:42:15 39° ESE
Landsat 7 3.8 22:39:31 31° SSE 22:41:45 76° ENE 22:46:32 10° N
CARTOSAT-1 3.8 22:43:12 36° SE 22:44:41 55° ENE 22:48:55 10° N
EO 1 Delta rocket 4.3 22:42:59 22° S 22:45:54 57° W 22:50:32 10° NNW
H-2A R/B 2.4 22:46:14 25° S 22:49:26 67° WSW 22:54:53 10° NNW
Cosmos 1943 3.8 22:44:32 10° NW 22:49:59 50° WSW 22:53:12 24° S
Cosmos 1151 Rocket 3.5 22:45:57 10° NNW 22:50:16 56° W 22:52:27 27° SSW
SWAS 4.3 22:48:23 28° SSW 22:50:38 77° ESE 22:54:57 10° NNE
Cosmos 1805 Rocket 3.7 22:52:11 42° SE 22:53:11 52° E 22:57:24 10° NNE
Cosmos 1633 Rocket 4.0 22:55:52 29° E 22:56:10 30° E 22:59:58 10° NNE
Cosmos 2058 3.5 22:53:41 21° SSW 22:56:18 54° W 23:00:28 10° N
Terra 1.8 22:54:55 39° SSE 22:56:41 74° ENE 23:01:27 10° N
BREEZE-M DEB (TANK) 4.5 22:55:33 10° NW 22:58:17 30° NNE 23:05:52 10° E
Cosmos 304 Rocket 3.8 22:54:27 10° NNW 22:59:15 78° WSW 23:00:58 40° S
Cosmos 1464 Rocket 4.1 22:56:46 10° N 23:02:53 60° E 23:05:27 35° SE
CZ-2C R/B 4.5 23:00:44 10° ENE 23:03:23 14° E 23:03:23 14° E
H-2A R/B 2.0 23:04:24 49° SE 23:05:24 69° ENE 23:09:36 10° N
Delta 2 Rocket 4.3 23:00:36 10° WSW 23:06:07 50° S 23:07:43 39° SE
Cosmos 967 Rocket 4.5 23:05:11 10° NNW 23:11:35 84° ENE 23:14:18 37° SE
CZ-4 R/B 3.8 23:10:38 10° NNE 23:15:27 66° ESE 23:16:30 50° SSE
Cosmos 1869 3.2 23:15:17 10° N 23:19:13 69° E 23:19:26 67° ESE
Cosmos 1626 3.8 23:17:25 19° WSW 23:19:15 30° WNW 23:22:34 10° NNW
CZ-4C R/B 2.0 23:17:30 31° SSW 23:20:04 77° ESE 23:25:58 10° NE
Cosmos 1470 Rocket 4.4 23:30:21 35° E 23:30:21 35° E 23:34:15 10° NNE
Cosmos 1400 Rocket 3.5 23:33:00 42° ENE 23:33:00 42° ENE 23:36:33 10° NNE
ARGOS Delta rocket 4.3 23:29:01 10° NNE 23:33:59 45° E 23:34:22 44° ESE
USA 234 3.5 23:27:50 10° NE 23:34:19 69° NW 23:40:48 10° WSW
Cosmos 2278 Rocket 3.3 23:36:33 27° E 23:36:33 27° E 23:41:00 10° NE
CZ-4C R/B 3.5 23:37:04 66° ESE 23:37:26 71° ENE 23:41:52 10° N
Spot 4 3.8 23:36:52 58° S 23:37:50 84° WSW 23:42:43 10° NNW
CZ-2C R/B 4.2 23:38:48 30° ESE 23:40:30 37° ENE 23:45:37 10° N
Tsikada Rocket 4.0 23:39:07 45° SSE 23:41:02 67° E 23:47:19 10° NNE
Sich 1 3.2 23:43:18 55° WSW 23:43:56 63° W 23:48:11 10° N
Cosmos 2263 Rocket 4.3 23:40:29 10° WSW 23:44:52 23° NW 23:49:19 10° N
Cosmos 1844 3.7 23:43:57 54° SSE 23:44:54 63° ESE 23:50:25 10° NNE
Cosmos 2242 Rocket 3.6 23:41:24 10° N 23:46:00 70° E 23:46:18 68° ESE
Cosmos 1816 Rocket 4.5 23:51:48 49° SSE 23:53:29 71° E 23:59:43 10° NNE
